Time,TemperatureF,DewpointF,PressureIn,WindDirection,WindDirectionDegrees,WindSpeedMPH,WindSpeedGustMPH,Humidity,HourlyPrecipIn,Conditions,Clouds,dailyrainin,SoftwareType,DateUTC
2018-05-26 00:07:00,75.0,64.0,29.81,SW,215,1.0,5.0,68,-99.99,,,-99.99,,2018-05-26 04:07:00,
2018-05-26 00:36:00,74.0,64.0,29.81,WSW,241,1.0,5.0,71,-99.99,,,-99.99,,2018-05-26 04:36:00,
2018-05-26 01:07:00,74.0,65.0,29.80,South,191,0.0,2.0,74,-99.99,,,-99.99,,2018-05-26 05:07:00,
2018-05-26 02:07:00,73.0,66.0,29.80,SW,215,0.0,1.0,78,-99.99,,,-99.99,,2018-05-26 06:07:00,
2018-05-26 02:37:00,73.0,66.0,29.79,South,186,0.0,1.0,79,-99.99,,,-99.99,,2018-05-26 06:37:00,
2018-05-26 03:07:00,72.0,65.0,29.79,SSW,198,0.0,2.0,80,-99.99,,,-99.99,,2018-05-26 07:07:00,
2018-05-26 03:36:00,72.0,66.0,29.79,SSW,198,0.0,2.0,81,-99.99,,,-99.99,,2018-05-26 07:36:00,
2018-05-26 04:07:00,71.0,65.0,29.78,SSW,198,0.0,0.0,82,-99.99,,,-99.99,,2018-05-26 08:07:00,
2018-05-26 04:37:00,70.0,65.0,29.78,SSW,198,0.0,0.0,84,-99.99,,,-99.99,,2018-05-26 08:37:00,
2018-05-26 05:07:00,69.0,65.0,29.78,SSW,198,0.0,0.0,86,-99.99,,,-99.99,,2018-05-26 09:07:00,
2018-05-26 05:37:00,68.0,65.0,29.78,SSW,198,0.0,0.0,89,-99.99,,,-99.99,,2018-05-26 09:37:00,
2018-05-26 06:07:00,68.0,65.0,29.78,SSW,198,0.0,0.0,90,-99.99,,,-99.99,,2018-05-26 10:07:00,
2018-05-26 06:37:00,67.0,64.0,29.78,SSW,198,0.0,1.0,91,-99.99,,,-99.99,,2018-05-26 10:37:00,
2018-05-26 07:07:00,68.0,65.0,29.79,South,174,0.0,4.0,90,-99.99,,,-99.99,,2018-05-26 11:07:00,
2018-05-26 08:07:00,68.0,65.0,29.80,WSW,241,0.0,1.0,89,-99.99,,,-99.99,,2018-05-26 12:07:00,
2018-05-26 08:37:00,68.0,64.0,29.80,SSW,203,0.0,2.0,88,-99.99,,,-99.99,,2018-05-26 12:37:00,
2018-05-26 09:07:00,69.0,65.0,29.80,South,179,2.0,7.0,87,-99.99,,,-99.99,,2018-05-26 13:07:00,
2018-05-26 09:37:00,72.0,67.0,29.80,SSW,213,0.0,3.0,84,-99.99,,,-99.99,,2018-05-26 13:37:00,
2018-05-26 10:07:00,72.0,67.0,29.80,NW,317,0.0,4.0,84,-99.99,,,-99.99,,2018-05-26 14:07:00,
2018-05-26 10:37:00,71.0,66.0,29.81,South,184,2.0,5.0,85,-99.99,,,-99.99,,2018-05-26 14:37:00,
2018-05-26 11:07:00,73.0,69.0,29.80,SW,218,0.0,5.0,87,-99.99,,,-99.99,,2018-05-26 15:07:00,
2018-05-26 11:37:00,73.0,68.0,29.80,SSE,168,0.0,4.0,84,-99.99,,,-99.99,,2018-05-26 15:37:00,
2018-05-26 12:08:00,74.0,69.0,29.80,South,184,1.0,4.0,84,-99.99,,,-99.99,,2018-05-26 16:08:00,
2018-05-26 12:37:00,75.0,68.0,29.79,NNW,339,1.0,5.0,80,-99.99,,,-99.99,,2018-05-26 16:37:00,
2018-05-26 13:08:00,76.0,70.0,29.79,WSW,248,0.0,4.0,81,-99.99,,,-99.99,,2018-05-26 17:08:00,
2018-05-26 13:37:00,79.0,70.0,29.78,WNW,300,1.0,5.0,74,-99.99,,,-99.99,,2018-05-26 17:37:00,
2018-05-26 14:08:00,79.0,69.0,29.78,NW,307,1.0,5.0,72,-99.99,,,-99.99,,2018-05-26 18:08:00,
2018-05-26 14:37:00,80.0,70.0,29.77,North,5,0.0,7.0,72,-99.99,,,-99.99,,2018-05-26 18:37:00,
2018-05-26 15:07:00,82.0,69.0,29.76,SSW,208,2.0,5.0,66,-99.99,,,-99.99,,2018-05-26 19:07:00,
2018-05-26 15:38:00,82.0,69.0,29.76,NW,313,0.0,6.0,65,-99.99,,,-99.99,,2018-05-26 19:38:00,
2018-05-26 16:07:00,83.0,69.0,29.75,NE,37,1.0,7.0,63,-99.99,,,-99.99,,2018-05-26 20:07:00,
2018-05-26 16:37:00,85.0,70.0,29.74,NNW,329,0.0,7.0,62,-99.99,,,-99.99,,2018-05-26 20:37:00,
2018-05-26 17:08:00,85.0,69.0,29.74,NW,323,0.0,4.0,58,-99.99,,,-99.99,,2018-05-26 21:08:00,
2018-05-26 17:37:00,83.0,68.0,29.73,SSW,213,0.0,2.0,61,-99.99,,,-99.99,,2018-05-26 21:37:00,
2018-05-26 18:07:00,84.0,68.0,29.73,NW,321,1.0,4.0,58,-99.99,,,-99.99,,2018-05-26 22:07:00,
2018-05-26 18:37:00,84.0,68.0,29.73,SSE,160,0.0,5.0,58,-99.99,,,-99.99,,2018-05-26 22:37:00,
2018-05-26 19:08:00,83.0,68.0,29.72,NW,320,1.0,6.0,60,-99.99,,,-99.99,,2018-05-26 23:08:00,
2018-05-26 19:37:00,83.0,69.0,29.72,NW,312,0.0,4.0,63,-99.99,,,-99.99,,2018-05-26 23:37:00,
2018-05-26 20:08:00,82.0,68.0,29.72,South,185,0.0,3.0,63,-99.99,,,-99.99,,2018-05-27 00:08:00,
2018-05-26 20:37:00,77.0,66.0,29.74,SW,217,0.0,3.0,70,-99.99,,,-99.99,,2018-05-27 00:37:00,
2018-05-26 21:07:00,75.0,67.0,29.75,SSW,194,0.0,0.0,77,-99.99,,,-99.99,,2018-05-27 01:07:00,
2018-05-26 21:37:00,74.0,67.0,29.76,SE,129,0.0,0.0,79,-99.99,,,-99.99,,2018-05-27 01:37:00,
2018-05-26 22:08:00,73.0,67.0,29.76,SE,129,0.0,0.0,81,-99.99,,,-99.99,,2018-05-27 02:08:00,